Content
SEND FEEDBACK

Daily
Averages
Monthly
Summary
United States of America

ST. LOUIS - SAINT LOUIS UNIVERSITY, MISSOURI


Home > North America > United States > Missouri
Elevation: 580 feet     Latitude: 38 38N     Longitude: 090 14W

WEATHER
 
SELECT A DAY
Number of Records: 188,419;   Date Range: 1/1/95 - 9/29/14
 
SHARE

PRINT THIS DATA

[ ← Previous Day ]
WEATHER ALMANAC - APRIL 27, 2013
[ Next Day → ]
[ °C ]   °F
Weather ElementAverageHighLow
Temperature52 °F55.4 °F (4:18 pm)48.2 °F (3:06 am)
Dewpoint50 °F53.6 °F (4:28 pm)45 °F (1:53 am)
Humidity92.8 %100 % (7:12 pm)83 % (1:53 am)
Barometer30.11 in30.28 in (1:53 am)29.93 in (11:48 pm)
Wind Speed4.3 mph10.4 mph (11:53 am)
Weather ElementAverage
Visibility4 mi
Wind DirectionESE (111.3 °)

Weather ElementTotal
Precipitation0.43 in
Heating Degree Days13.2 (Base 65)
Growing Degree Days1.8 (Base 50)
Averaged from 38 records on April 27, 2013
WEATHER CONDITIONS BREAKOUT
WIND DIRECTION BREAKOUT
WEATHER BY HOUR - APRIL 27, 2013
[ °C ]   °F
Local TimeTemperatureDewpointHumidityBarometerVisibilityWind DirectionWind SpeedGust SpeedPrecipitationEventsConditions
1:53 AM50.0 °F45.0 °F83 %30.28 in10.0 miCalmOvercast
2:53 AM48.9 °F46.0 °F90 %30.26 in8.0 miESE (120°)3.5 mph0.00 inRainLight Rain
3:06 AM48.2 °F46.4 °F93 %30.25 in3.0 miCalm0.00 inRainLight Rain
3:19 AM48.2 °F46.4 °F93 %30.24 in2.5 miEast (90°)3.5 mph0.01 inRainLight Rain
3:29 AM48.2 °F46.4 °F93 %30.25 in2.5 miCalm0.02 inRainLight Rain
3:36 AM48.2 °F46.4 °F93 %30.24 in3.0 miSE (140°)3.5 mph0.02 inRainLight Rain
3:53 AM48.9 °F46.9 °F93 %30.23 in5.0 miEast (90°)4.6 mph0.02 inOvercast
4:53 AM50.0 °F48.0 °F93 %30.21 in9.0 miENE (70°)3.5 mphOvercast
5:53 AM50.0 °F48.0 °F93 %30.20 in7.0 miNE (50°)5.8 mphOvercast
6:29 AM50.0 °F48.2 °F94 %30.20 in7.0 miCalmOvercast
6:38 AM50.0 °F48.2 °F94 %30.21 in4.0 miCalmOvercast
6:53 AM50.0 °F48.0 °F93 %30.20 in2.5 miEast (100°)4.6 mphOvercast
7:30 AM50.0 °F48.2 °F94 %30.19 in3.0 miEast (90°)4.6 mph0.01 inOvercast
7:53 AM50.0 °F48.0 °F93 %30.19 in4.0 miEast (90°)6.9 mph0.01 inOvercast
8:53 AM51.1 °F48.0 °F89 %30.17 in3.0 miEast (90°)8.1 mph0.00 inRainLight Rain
9:26 AM51.8 °F48.2 °F88 %30.16 in6.0 miESE (110°)8.1 mph0.01 inRainLight Rain
9:53 AM51.1 °F48.0 °F89 %30.16 in5.0 miEast (100°)8.1 mph0.02 inRainLight Rain
10:53 AM52.0 °F48.9 °F89 %30.15 in5.0 miEast (100°)5.8 mph0.03 inRainLight Rain
11:53 AM53.1 °F50.0 °F89 %30.14 in3.0 miESE (120°)10.4 mph0.03 inRainLight Rain
12:10 PM53.6 °F50.0 °F88 %30.14 in2.5 miESE (120°)4.6 mph0.00 inRainLight Rain
12:32 PM53.6 °F51.8 °F94 %30.13 in3.0 miESE (110°)4.6 mph0.01 inRainLight Rain
12:53 PM53.1 °F50.0 °F89 %30.12 in10.0 miESE (110°)4.6 mph0.01 inOvercast
1:53 PM54.0 °F51.1 °F90 %30.09 in4.0 miEast (80°)5.8 mphOvercast
2:53 PM55.0 °F52.0 °F89 %30.06 in6.0 miEast (90°)4.6 mphOvercast
4:18 PM55.4 °F51.8 °F88 %30.02 in2.0 miENE (70°)6.9 mphOvercast
4:28 PM55.4 °F53.6 °F94 %30.02 in1.8 miENE (60°)5.8 mphOvercast
4:53 PM54.0 °F53.1 °F97 %30.02 in1.2 miENE (60°)4.6 mph0.01 inOvercast
5:53 PM55.0 °F53.1 °F93 %29.99 in1.5 miENE (70°)5.8 mph0.00 inOvercast
6:50 PM55.4 °F53.6 °F94 %29.97 in2.0 miNE (40°)3.5 mphOvercast
6:53 PM54.0 °F53.1 °F97 %29.96 in2.5 miNE (40°)4.6 mphOvercast
7:12 PM53.6 °F53.6 °F100 %29.97 in2.5 miCalm0.01 inOvercast
7:31 PM53.6 °F53.6 °F100 %29.97 in1.8 miCalm0.01 inRainLight Rain
7:53 PM54.0 °F53.1 °F97 %29.97 in1.0 miWNW (290°)3.5 mph0.04 inRainLight Rain
8:53 PM54.0 °F53.1 °F97 %29.96 in3.0 miNorth (350°)4.6 mph0.15 inRainLight Rain
9:53 PM54.0 °F53.1 °F97 %29.96 in3.0 miNorth (350°)4.6 mph0.01 inOvercast
10:53 PM53.1 °F52.0 °F96 %29.94 in4.0 miNNW (340°)6.9 mphOvercast
11:48 PM53.6 °F51.8 °F94 %29.93 in4.0 miNorth (350°)4.6 mphOvercast
11:53 PM53.1 °F52.0 °F96 %29.93 in4.0 miNNW (340°)3.5 mphOvercast
Hourly data recorded from KCPS, located miles away from St. Louis - Saint Louis University, Missouri







STORIES FROM OUR PARTNERS